Flag for Germany Weather past 2 weeks in Pfaffenhofen an der Ilm, Bavaria, Germany

Now
34 °F

Chilly.


Feels Like: 24 °F
Forecast: 33 / 42 °F
Wind: 15 mph from West

Location: Ingolstadt Airport

Current Time: Apr 1, 2015 at 4:08:19 AM

Latest Report: Apr 1, 2015 at 3:20 AM


Visibility: 3 mi

Pressure: 29.89 "Hg

Humidity: 93%

Dew point: 32 °F

Location of Pfaffenhofen an der IlmLocation

Historic Weather in Pfaffenhofen an der Ilm — Graph

°F

Pfaffenhofen an der Ilm temperature yesterday

Maximum temperature yesterday: 57 °F (at 2:20 PM)
Minimum temperature yesterday: 37 °F (at 12:20 AM)
Average temperature yesterday: 48 °F

Past Weeks' High & Low Weather Summary

 TemperatureHumidityPressure
High63 °F (Mar 17, 2:20 PM)100% (Mar 19, 6:20 AM)30.27 "Hg (Mar 19, 6:20 AM)
Low27 °F (Mar 20, 6:20 AM)31% (Mar 19, 5:20 PM)29.47 "Hg (Mar 31, 9:20 AM)
Average44 °F72%29.95 "Hg
* Reported Mar 17 1:20 AM — Apr 1 2:20 AM, Pfaffenhofen an der Ilm, Weather by CustomWeather, © 2015

Note: Actual official high and low records may vary slightly from our data, if they occured in-between our weather recording intervals... More about our weather records

Advertising

Pfaffenhofen an der Ilm weather history for previous 24 hours

 ConditionsComfort  
Time TempWeatherWind HumidityBarometerVisibility
2:20 AM
Wed, Apr 1
36 °FChilly.25 mph93%29.89 "Hg3 mi
1:20 AM39 °FChilly.25 mph87%29.86 "Hg2 mi
12:20 AM39 °FChilly.28 mph87%29.83 "Hg3 mi
11:20 PM
Tue, Mar 31
43 °FPartly cloudy.18 mph71%29.83 "HgN/A
10:20 PM43 °FPartly cloudy.16 mph76%29.83 "HgN/A
9:20 PM43 °FPartly cloudy.14 mph76%29.83 "HgN/A
8:20 PM43 °FBroken clouds.20 mph76%29.80 "HgN/A
7:20 PM43 °FPartly sunny.20 mph81%29.74 "HgN/A
6:47 PM41 °FRain showers. Broken clouds.26 mph87%29.77 "Hg3 mi
6:20 PM45 °FSprinkles. Partly sunny.26 mph76%29.71 "Hg5 mi
5:20 PM50 °FPartly sunny.31 mph67%29.65 "HgN/A
5:00 PM48 °FSprinkles. Partly sunny.35 mph71%29.62 "Hg5 mi
4:20 PM50 °FBroken clouds.29 mph71%29.59 "HgN/A
4:02 PM46 °FSprinkles. Partly sunny.37 mph87%29.62 "Hg4 mi
3:20 PM54 °FPartly sunny.36 mph63%29.56 "HgN/A
2:20 PM57 °FBroken clouds.25 mph51%29.56 "HgN/A
1:45 PM55 °FBroken clouds.38 mph59%29.56 "Hg5 mi
1:20 PM54 °FScattered showers. Broken clouds.31 mph77%29.53 "Hg4 mi
12:20 PM55 °FSprinkles. Partly sunny.36 mph67%29.53 "Hg5 mi
11:20 AM55 °FScattered showers. Partly sunny.37 mph67%29.50 "HgN/A
10:20 AM55 °FSprinkles. Partly sunny.41 mph67%29.50 "HgN/A
9:20 AM55 °FSprinkles. Partly sunny.30 mph67%29.47 "HgN/A
8:57 AM55 °FBroken clouds.26 mph72%29.50 "HgN/A
8:20 AM54 °FBroken clouds.25 mph77%29.50 "HgN/A
7:20 AM50 °FPartly cloudy.22 mph82%29.53 "HgN/A
6:20 AM46 °FPassing clouds.15 mph93%29.56 "HgN/A
5:20 AM43 °FRain. Passing clouds.9 mph93%29.62 "HgN/A
4:20 AM43 °FQuite cool.7 mph76%29.71 "Hg4 mi
Weather by CustomWeather, © 2015

See weather overviewHow to use our weather pages